Location: Unspecified
(0.0000°N, 0.0000°E)
Time: 10:47:08
(UTC+02:00)

BREEZE-M DEB (TANK) - Visible Passes

Search period start: 18 April 2015 00:00
Search period end: 28 April 2015 00:00
Orbit: 336 x 16376 km, 49.4° (Epoch: 16 April)

Date Brightness Start Highest point End Pass type
(mag) Time Alt. Az. Time Alt. Az. Time Alt. Az.
18 Apr 8.8 03:42:25 10° NNW 05:37:54 53° NE 07:17:20 10° SE visible
18 Apr 7.4 23:00:24 10° NNW 23:05:19 12° N 23:12:19 10° N visible
19 Apr 8.9 04:30:24 10° NNW 06:49:40 71° NE 08:04:57 10° SE visible
19 Apr 7.8 23:53:21 10° N 23:57:43 10° N 00:04:09 10° NNE visible
20 Apr 8.5 05:19:00 10° NNW 07:51:48 90° ENE 08:51:09 10° SSE visible
21 Apr 8.2 00:42:18 10° N 00:55:50 13° NNE 03:33:41 10° E visible
21 Apr 8.3 06:08:42 10° NNW 08:47:56 72° WSW 09:36:20 10° SSE visible
22 Apr 8.4 01:29:03 10° N 02:04:29 20° NNE 04:50:59 10° ESE visible
22 Apr 8.1 07:00:20 10° NW 09:40:42 55° WSW 10:20:40 10° SSE visible
22 Apr 5.7 20:45:49 10° W 20:49:24 23° NNW 20:57:40 10° NNE visible
23 Apr 8.7 02:15:34 10° NNW 03:25:50 33° NE 05:46:49 10° ESE visible
23 Apr 6.8 21:32:45 10° NW 21:36:44 14° NNW 21:43:14 10° N visible
24 Apr 8.8 03:02:13 10° NNW 04:48:03 51° NE 06:36:58 10° SE visible
25 Apr 8.9 03:49:14 10° NNW 06:00:30 69° NE 07:24:30 10° SE visible
26 Apr 8.6 04:36:50 10° NNW 07:03:57 87° ENE 08:10:31 10° SSE visible
27 Apr 8.2 00:05:17 10° N 00:13:39 11° NNE 02:37:57 10° E visible
27 Apr 8.3 05:25:25 10° NNW 08:01:17 74° WSW 08:55:30 10° SSE visible
